Theta_e
343 341 339 338 338 337 336 335 333 333 332 331 331 333 336 337 336 336 333 328 327 326 329 331 332 332 336 336 336 335 331 332 334 334 335 333 333 333 332 332 331 331 332
345 342 339 338 338 338 336 334 334 334 332 331 331 332 334 336 336 335 334 330 328 327 328 329 330 331 333 335 335 332 329 333 335 336 336 333 334 334 333 332 332 332 332
346 345 342 339 338 339 337 335 334 333 332 331 331 331 332 335 336 336 334 330 329 327 328 329 329 329 331 332 330 328 331 335 336 336 336 332 332 333 333 333 333 332 332
345 343 339 340 339 339 337 335 334 334 333 332 331 331 332 334 336 336 336 332 330 328 329 330 329 330 329 328 329 331 334 335 336 335 332 331 331 332 332 331 330 331 331
346 346 343 339 338 338 337 335 334 334 333 332 332 332 332 334 335 337 336 333 331 329 330 330 329 329 331 332 332 334 335 335 335 334 331 330 330 331 330 329 329 329 328
342 344 345 345 344 339 337 336 335 335 334 333 332 332 332 333 335 337 337 334 331 329 330 330 330 331 332 333 334 334 335 335 333 332 331 329 330 330 329 330 331 329 327
343 344 343 343 341 340 338 336 336 336 335 334 331 331 331 333 334 336 337 334 332 330 330 331 330 331 332 334 334 334 334 335 332 333 330 329 329 329 328 330 330 329 328
340 341 340 341 340 339 339 337 336 336 336 335 333 330 328 329 333 336 337 334 332 331 331 331 330 330 332 334 334 334 334 335 333 333 330 329 329 328 328 329 330 329 328
338 338 336 337 338 338 338 337 337 337 336 335 333 332 331 331 331 335 336 335 332 331 330 331 331 330 331 333 334 334 334 334 333 333 333 332 329 329 330 329 330 329 327
329 335 335 333 335 334 336 338 338 338 337 335 334 333 331 330 331 332 335 335 334 332 331 331 331 330 331 332 333 334 334 333 333 333 332 332 330 331 332 331 331 328 327
314 316 318 319 321 323 328 329 328 333 335 336 336 336 336 332 330 329 332 334 334 333 333 332 332 331 330 331 332 333 333 333 333 333 332 332 330 331 332 331 331 328 327
313 313 313 313 313 313 314 314 314 314 315 319 328 333 332 333 335 330 328 330 332 333 333 333 332 331 330 330 330 331 332 332 332 333 332 332 332 330 332 330 331 329 327
314 313 313 313 313 312 312 312 311 311 311 312 313 313 318 328 331 333 334 327 329 331 332 333 333 332 331 330 330 330 331 331 332 332 331 331 329 329 331 330 331 329 327
313 312 312 312 312 309 308 307 308 308 308 309 309 309 310 312 315 327 332 336 329 328 329 331 332 333 332 331 330 330 330 331 331 332 329 330 328 329 331 331 330 330 328
312 312 311 309 307 306 307 307 308 308 308 309 309 309 309 309 310 311 323 331 333 335 330 329 330 331 332 332 331 330 330 330 331 331 330 330 330 330 332 331 328 328 328
310 310 308 307 307 307 307 307 308 308 308 308 308 309 309 309 309 310 310 317 329 332 336 334 331 329 330 330 332 331 330 330 330 331 331 330 331 328 329 331 328 327 329
307 307 306 306 306 306 306 306 307 307 308 308 308 309 309 310 309 309 309 310 313 327 332 334 336 333 331 331 330 332 331 330 329 330 331 331 331 329 329 328 331 326 329
305 306 305 305 305 305 305 306 306 307 307 308 309 309 310 310 310 310 310 310 310 311 324 330 334 335 334 331 329 330 331 330 330 329 331 330 330 330 328 328 330 328 329
305 305 304 304 305 305 305 305 306 307 308 309 310 310 311 311 311 311 311 310 310 310 311 327 332 333 336 333 331 330 329 330 329 329 330 330 330 330 327 328 330 331 329
304 304 304 304 305 305 305 305 306 307 309 310 310 310 311 311 311 311 311 311 311 311 310 312 331 332 333 335 333 332 329 328 330 330 330 330 330 331 330 327 329 329 328
303 304 304 304 305 305 305 305 306 307 308 309 309 310 310 311 310 310 309 309 310 311 311 310 315 331 332 333 332 333 333 329 330 330 330 331 330 329 329 328 330 329 328
302 302 303 304 304 304 304 304 304 305 307 308 308 308 309 310 311 311 310 310 308 310 311 311 310 320 330 330 332 332 332 332 331 331 330 330 330 329 329 329 329 328 328
302 302 303 302 303 302 302 303 303 305 305 306 307 307 308 309 310 310 310 310 310 308 309 310 311 313 324 330 329 332 331 331 331 332 331 330 330 330 329 329 329 327 327
301 301 302 302 302 302 301 302 302 303 304 304 305 306 307 308 309 310 310 309 306 307 307 308 310 311 317 326 328 330 330 330 330 331 330 331 330 329 328 329 330 328 327
302 302 301 301 301 301 301 300 300 302 302 303 303 304 306 308 309 309 309 308 305 304 305 306 308 310 311 318 326 327 331 330 331 329 330 331 331 330 328 328 329 328 328
300 301 301 301 301 301 301 300 300 300 301 302 303 303 304 306 307 307 308 307 305 303 304 305 306 309 311 312 320 327 329 330 330 331 329 329 328 329 330 329 329 329 328
Wind_Speed
9 3 2 3 3 3 2 3 3 2 2 2 2 2 2 2 3 3 4 3 3 2 2 3 5 6 5 4 4 3 4 6 5 4 3 1 2 5 8 10 13 14 15
7 6 3 2 2 2 1 2 3 2 2 2 2 2 1 1 1 1 2 2 3 2 1 2 4 5 5 4 4 4 6 7 5 4 2 3 3 6 7 9 9 12 15
10 9 5 1 1 2 1 0 1 1 1 1 1 1 1 1 1 1 2 2 2 2 2 3 3 5 6 6 7 6 6 5 4 2 5 3 5 6 7 9 10 10 13
13 12 9 4 2 3 3 2 1 1 1 2 3 3 2 3 3 2 2 2 4 4 3 4 5 4 5 6 7 6 6 5 4 3 5 2 6 8 10 10 10 11 12
14 14 12 9 5 3 2 2 2 2 2 2 3 5 5 5 4 4 4 4 4 5 4 4 5 5 6 7 6 7 7 5 4 6 5 3 7 10 13 12 12 13 12
14 13 11 9 6 2 2 3 4 4 3 3 4 5 6 7 6 6 6 6 5 6 5 5 6 5 6 7 7 8 9 7 7 7 6 8 9 13 12 12 11 13 13
13 12 11 9 6 4 3 3 4 5 6 8 8 7 7 7 8 8 8 7 7 7 6 6 6 6 7 8 9 9 10 8 9 6 7 10 10 10 11 14 14 13 9
9 9 10 11 12 8 3 2 1 1 2 3 6 9 10 9 9 9 9 9 9 9 8 7 7 7 8 10 10 10 11 10 10 7 8 9 11 13 13 15 13 13 13
6 6 9 10 9 7 7 4 4 4 5 5 5 5 6 9 11 10 11 11 11 11 10 10 9 9 10 11 11 12 12 12 13 12 10 11 12 14 15 17 15 15 11
10 9 8 7 5 6 6 6 7 8 6 5 6 7 8 8 9 12 14 13 13 13 13 12 11 11 12 14 13 14 14 14 15 17 13 14 10 14 16 19 19 16 14
11 12 12 11 10 11 9 10 12 12 12 10 10 10 10 10 10 11 14 16 16 14 14 14 14 13 15 16 15 15 16 15 15 18 16 16 12 15 17 19 18 18 16
8 7 7 9 10 10 11 12 13 13 15 14 15 17 16 15 14 13 14 15 18 18 17 17 16 16 17 18 17 17 18 17 17 18 19 19 18 19 18 19 21 18 16
10 8 8 10 14 17 17 17 17 17 16 15 15 15 16 18 17 17 15 16 17 20 21 20 20 20 20 21 21 20 20 18 19 19 20 19 20 23 23 21 21 18 18
7 8 10 14 17 19 19 19 18 18 18 17 17 18 18 19 19 19 20 18 18 18 23 24 24 24 24 23 23 22 21 21 20 21 20 19 18 18 23 22 21 20 19
6 9 12 16 19 20 20 20 20 20 20 20 20 20 21 21 21 22 21 23 21 20 21 25 26 26 25 25 25 25 24 24 23 23 22 20 20 20 22 22 23 21 21
5 8 13 15 18 19 20 21 20 20 20 21 21 22 25 26 25 24 25 24 27 27 25 24 27 30 28 25 26 27 27 26 25 25 24 23 23 21 22 25 25 21 24
7 11 11 15 18 20 21 22 23 23 22 22 22 23 25 27 28 29 27 26 27 29 30 29 30 30 33 29 28 29 29 29 28 27 27 27 26 25 25 28 31 26 27
8 9 12 14 17 20 22 24 24 23 24 25 27 28 28 26 27 28 29 29 28 31 32 36 32 34 35 35 31 30 32 31 30 29 29 29 29 28 28 28 29 25 26
8 10 13 16 20 24 26 26 26 24 24 25 26 28 29 29 27 26 28 28 29 32 35 31 35 38 37 38 35 31 31 33 30 31 31 31 30 29 30 27 30 28 26
9 12 16 20 24 27 30 29 27 26 27 29 29 30 28 27 26 26 26 28 27 30 34 36 28 37 37 39 38 35 31 32 29 31 31 31 32 30 28 28 31 30 28
10 13 17 21 26 28 29 31 29 30 29 29 29 29 30 31 30 31 26 24 27 29 31 34 38 27 38 35 39 38 36 36 34 31 33 33 35 33 29 30 32 34 30
13 15 18 21 24 26 28 29 31 34 34 35 35 34 33 32 30 29 29 27 23 26 29 30 34 39 30 39 35 35 26 35 39 37 35 36 36 36 33 32 33 35 33
14 17 20 22 23 25 27 29 30 31 34 37 37 37 36 36 34 31 31 29 27 26 29 28 29 36 37 37 43 36 19 21 29 37 40 39 39 39 37 37 36 37 35
15 17 18 20 22 24 27 30 32 34 37 38 40 39 36 35 35 35 36 34 30 28 29 28 27 32 42 36 40 46 45 27 23 18 35 43 41 41 40 40 39 39 37
14 16 18 19 22 24 27 29 32 34 34 36 37 39 38 36 36 36 38 36 34 31 30 30 29 31 39 50 39 40 45 49 35 30 22 32 44 44 44 43 42 42 41
12 15 17 20 23 25 27 29 31 33 34 35 36 39 41 39 37 38 40 38 35 32 33 30 31 32 35 45 55 44 47 50 53 44 36 35 44 47 46 45 45 44 43
Wind_Direction
1 351 195 172 151 136 134 126 119 123 102 60 66 81 79 76 81 78 71 64 54 37 155 185 189 184 181 163 160 205 284 290 299 308 300 184 139 152 144 144 148 148 148
35 77 115 120 117 101 111 128 125 114 87 41 32 53 62 58 55 39 38 32 25 20 280 217 208 210 214 219 232 257 278 293 303 293 207 155 156 189 170 156 151 153 152
59 49 39 53 83 55 3 129 136 130 92 37 358 329 298 267 250 286 314 340 350 327 286 264 237 232 240 247 256 264 275 271 269 226 185 171 162 163 164 177 178 169 163
57 45 39 56 49 39 355 343 1 40 27 4 335 311 287 265 259 254 276 307 316 311 297 268 259 246 243 248 265 269 267 260 230 232 169 172 156 153 153 155 152 149 153
70 58 55 50 34 26 5 340 339 6 3 352 329 312 293 270 259 254 262 281 294 297 293 275 262 258 247 245 255 256 255 245 228 187 196 194 169 164 157 151 150 146 141
87 82 80 77 74 58 12 336 332 331 329 325 324 312 295 276 262 252 254 268 283 285 282 280 271 259 252 247 241 244 248 241 203 228 222 190 179 171 165 165 172 164 156
99 88 87 78 74 90 99 67 30 357 341 334 325 313 293 277 267 257 254 259 275 283 281 273 269 262 253 248 243 243 245 237 228 230 204 184 184 192 186 167 158 166 153
102 82 65 57 51 57 69 87 69 16 3 2 348 329 310 290 267 257 257 264 272 276 279 275 270 263 258 250 248 247 245 241 233 226 205 213 215 207 197 184 167 159 170
113 122 75 56 43 36 31 24 351 341 334 331 324 322 312 301 285 262 251 261 269 272 273 273 268 261 257 256 252 251 248 245 230 229 222 221 216 215 202 195 178 171 197
98 91 84 72 48 32 2 355 350 358 349 334 335 320 306 297 288 281 267 258 262 268 271 271 269 262 257 257 254 252 249 246 239 226 234 213 235 230 216 200 186 176 200
86 77 74 66 53 40 21 6 1 341 326 325 320 321 322 302 288 281 276 272 264 262 267 269 267 262 258 257 256 253 252 247 250 231 233 231 239 230 218 208 193 184 200
95 77 50 35 20 5 351 346 347 344 344 336 315 310 313 316 313 287 278 276 273 265 259 263 264 261 256 258 258 254 253 251 249 241 236 246 247 235 227 210 202 191 208
75 52 28 11 358 346 339 333 322 317 317 311 310 311 305 294 296 298 288 270 273 275 268 262 262 259 258 258 259 257 257 250 250 241 241 248 253 237 225 218 209 200 210
61 31 10 353 345 342 339 336 336 332 327 324 319 312 304 297 296 284 283 282 268 265 272 271 266 263 258 257 258 257 255 254 249 245 247 246 244 228 220 211 208 211 215
37 6 352 349 345 347 346 342 338 335 331 326 321 317 312 306 295 286 280 276 272 269 261 268 269 266 261 258 256 255 255 254 252 246 248 246 238 230 226 220 218 220 223
22 358 356 349 349 347 342 335 330 328 328 326 323 318 312 305 298 288 277 269 268 272 269 261 262 267 264 260 257 255 255 252 251 248 247 245 236 231 231 231 222 220 227
18 11 345 344 346 341 340 336 331 330 327 323 319 317 313 306 298 292 285 269 261 260 266 266 261 257 259 254 254 255 252 251 250 249 245 243 240 235 237 234 223 212 223
18 356 347 344 343 342 344 339 332 330 326 321 320 318 316 310 301 291 285 280 267 255 251 260 259 257 255 253 251 258 252 249 250 248 242 240 239 241 236 233 233 215 219
2 346 342 348 348 346 344 340 334 332 330 327 325 324 321 317 311 299 289 282 274 261 252 245 257 258 255 253 250 252 253 248 251 248 241 238 237 241 232 233 225 223 223
355 348 354 354 349 347 341 337 335 338 334 335 336 337 335 330 323 311 301 292 282 270 256 246 246 260 254 252 251 247 248 246 247 245 240 237 235 241 239 230 221 226 227
355 357 358 354 351 344 338 337 339 342 338 337 338 339 337 338 332 323 312 302 291 281 269 253 241 252 256 253 250 247 244 243 244 243 238 237 236 237 238 230 220 225 232
7 4 1 356 350 346 343 343 343 342 340 340 342 344 343 339 334 328 323 319 311 285 275 262 249 239 255 250 243 238 236 240 239 239 237 235 233 233 235 231 227 227 231
6 6 3 359 354 348 344 341 342 337 338 339 340 341 345 339 336 337 331 328 321 305 285 274 256 241 243 253 248 232 225 230 234 236 233 234 234 232 232 233 230 228 230
10 6 2 356 352 350 346 342 342 341 339 339 339 341 339 336 334 333 330 329 323 315 295 282 270 253 237 248 246 246 233 230 213 221 236 232 232 231 230 233 231 230 231
1 359 358 357 355 352 349 344 340 337 336 335 338 335 336 338 334 334 332 331 325 314 304 289 276 265 245 236 252 239 241 228 229 220 211 218 228 231 231 231 232 231 232
359 356 357 357 353 350 347 345 340 336 335 335 336 336 337 335 332 330 327 325 322 318 307 294 283 267 259 243 237 244 236 227 223 221 216 221 227 226 230 233 233 233 233